Vancouver, British Columbia

2:01 PM PDT on October 18, 2017 (GMT -0700)
Vancouver International Airport

Weather History for CYVR - November, 2012

Change the Weather History Date:

Thursday, November 1, 2012

  Actual Average Record
Temperature  
Mean Temperature 54 °F -  
Max Temperature 56 °F 48 °F 57 °F (1997)
Min Temperature 51 °F 37 °F 30 °F (2002)
Degree Days  
Heating Degree Days 12    
Growing Degree Days 4 (Base 50)    
Moisture  
Dew Point 50 °F    
Average Humidity 90    
Maximum Humidity 94    
Minimum Humidity 82    
Precipitation  
Precipitation 0.04 in 0.22 in - ()
Sea Level Pressure  
Sea Level Pressure 29.84 in    
Wind  
Wind Speed 7 mph ()    
Max Wind Speed 14 mph    
Max Gust Speed 20 mph    
Visibility 11.2 miles    
Events Rain    
Averages and records for this station are not official NWS values.
T = Trace of Precipitation, MM = Missing Value Source: Averaged Metar Reports

Daily Weather History Graph

Daily Weather History Graph

Search for Another Location

Airport or City:

Trip Planner

Search our weather history database for the weather conditions in past years. The results will help you decide how hot, cold, wet, or windy it might be!

Date:

Astronomy

Nov. 01, 2012 Rise Set
Actual Time 8:01 AM PDT 5:50 PM PDT
Civil Twilight 7:27 AM PDT 6:23 PM PDT
Nautical Twilight 6:50 AM PDT 7:01 PM PDT
Astronomical Twilight 6:13 AM PDT 7:38 PM PDT
Moon 7:40 PM PDT (11/1) 10:50 AM PDT (11/1)
Length of Visible Light 10h 55m
Length of Day
9h 49m
Waning Gibbous, 92% of the Moon is Illuminated
Nov 1
Waning Gibbous
Nov 6
Last Quarter
Nov 13
New
Nov 20
First Quarter
Nov 28
Full

Hourly Weather History & Observations

Time (PDT) Temp. Dew Point Humidity Pressure Visibility Wind Dir Wind Speed Gust Speed Precip Events Conditions
12:00 AM 51.8 °F 50.0 °F 94% 29.71 in 8.0 mi East 8.1 mph - N/A   Overcast
12:27 AM 51.8 °F - N/A% - 8.0 mi East 9.2 mph - N/A   Light Drizzle
1:00 AM 53.6 °F 50.0 °F 88% 29.72 in 8.0 mi East 8.1 mph - N/A   Light Drizzle
2:00 AM 53.6 °F 50.0 °F 88% 29.72 in 8.0 mi East 4.6 mph - N/A   Light Drizzle
3:00 AM 51.8 °F 50.0 °F 94% 29.73 in 8.0 mi NNE 5.8 mph - N/A   Light Drizzle
4:00 AM 53.6 °F 50.0 °F 88% 29.73 in 8.0 mi East 9.2 mph - N/A   Light Drizzle
5:00 AM 53 °F 51 °F 88% 29.74 in 7 mi East 4.6 mph - - Rain Light Drizzle
5:00 AM 53.6 °F 50.0 °F 88% 29.74 in 8.0 mi ESE 4.6 mph - N/A   Light Drizzle
6:00 AM 53.6 °F 50.0 °F 88% 29.75 in 8.0 mi East 8.1 mph - N/A   Light Drizzle
6:35 AM 51.8 °F - N/A% - 10.0 mi East 9.2 mph - N/A Rain Light Rain Showers
7:00 AM 51.8 °F 50.0 °F 94% 29.76 in 10.0 mi East 9.2 mph - N/A Rain Light Rain Showers
8:00 AM 51.8 °F 50.0 °F 94% 29.78 in 15.0 mi East 10.4 mph - N/A   Overcast
9:00 AM 51.8 °F 50.0 °F 94% 29.80 in 15.0 mi East 10.4 mph - N/A   Overcast
10:00 AM 53.6 °F 50.0 °F 88% 29.82 in 15.0 mi East 6.9 mph - N/A   Overcast
11:00 AM 54 °F 50 °F 83% 29.83 in 15 mi ESE 8.1 mph - -   Partly Cloudy
11:00 AM 53.6 °F 50.0 °F 88% 29.83 in 15.0 mi ESE 8.1 mph - N/A   Overcast
11:44 AM 53.6 °F - N/A% - 12.0 mi SE 9.2 mph - N/A Rain Light Rain Showers
11:56 AM 53.6 °F - N/A% - 6.0 mi ESE 13.8 mph - N/A Rain Light Rain Showers
12:00 PM 53.6 °F 50.0 °F 88% 29.86 in 5.0 mi East 10.4 mph - N/A Rain Light Rain Showers
12:04 PM 53.6 °F - N/A% - 10.0 mi East 10.4 mph - N/A Rain Light Rain Showers
12:25 PM 53.6 °F - N/A% - 15.0 mi East 5.8 mph - N/A   Overcast
1:00 PM 57.2 °F 51.8 °F 82% 29.86 in 15.0 mi East 6.9 mph - N/A   Mostly Cloudy
2:00 PM 53.6 °F 51.8 °F 94% 29.88 in 15.0 mi SE 8.1 mph 19.6 mph N/A Rain Light Rain Showers
2:45 PM 55.4 °F - N/A% - 15.0 mi East 8.1 mph - N/A   Overcast
3:00 PM 55.4 °F 51.8 °F 88% 29.89 in 15.0 mi East 5.8 mph - N/A   Overcast
3:29 PM 55.4 °F - N/A% - 10.0 mi ESE 8.1 mph - N/A Rain Light Rain Showers
3:53 PM 53.6 °F - N/A% - 12.0 mi East 8.1 mph - N/A   Overcast
4:00 PM 53.6 °F 51.8 °F 94% 29.90 in 12.0 mi East 8.1 mph - N/A   Overcast
4:08 PM 53.6 °F - N/A% - 12.0 mi East 8.1 mph - N/A   Overcast
5:00 PM 54 °F 51 °F 88% 29.91 in 15 mi East 9.2 mph - -   Partly Cloudy
5:00 PM 53.6 °F 51.8 °F 94% 29.91 in 15.0 mi East 8.1 mph - N/A   Overcast
5:17 PM 53.6 °F - N/A% - 15.0 mi ESE 9.2 mph - N/A Rain Light Rain Showers
6:00 PM 53.6 °F 50.0 °F 88% 29.92 in 15.0 mi East 5.8 mph - N/A   Overcast
7:00 PM 53.6 °F 50.0 °F 88% 29.94 in 15.0 mi East 6.9 mph - N/A   Mostly Cloudy
8:00 PM 53.6 °F 50.0 °F 88% 29.95 in 15.0 mi East 5.8 mph - N/A   Mostly Cloudy
9:00 PM 53.6 °F 50.0 °F 88% 29.97 in 12.0 mi ESE 5.8 mph - N/A Rain Light Rain
9:38 PM 53.6 °F - N/A% - 8.0 mi East 9.2 mph - N/A   Light Drizzle
10:00 PM 53.6 °F 50.0 °F 88% 29.98 in 8.0 mi East 9.2 mph - N/A   Overcast
10:44 PM 53.6 °F - N/A% - 8.0 mi ESE 6.9 mph - N/A Rain Light Rain Showers
11:00 PM 53 °F 51 °F 90% 30.00 in 7 mi ESE 8.1 mph - - Rain Light Rain Showers
11:00 PM 53.6 °F 51.8 °F 94% 30.00 in 8.0 mi East 8.1 mph - N/A Rain Light Rain Showers
11:41 PM 51.8 °F - N/A% - 8.0 mi East 9.2 mph - N/A   Overcast